Wind_Speed
8 8 8 8 8 7 7 6 6 7 6 7 7 7 7 7 7 8 8 8 7 7 6 6 5 6 6 6 7 7 8 9 10 14 14 8 5 11 12 12 12 11 10 10 8 5 8 9 9 11 8 4 4 6 4 6 7 5 2 3 4 4 5 3 2 1 3 6 9 18 15 3 4 4 5 7 14 15 16 18 13 10 13 20 24 34 36 31
7 8 8 8 7 7 7 6 7 7 7 7 7 7 7 6 7 7 7 8 7 7 6 5 5 5 6 7 7 8 9 10 12 13 9 4 5 10 12 13 13 12 10 10 10 7 8 10 10 9 7 5 5 6 5 5 6 5 3 2 5 5 4 4 3 4 4 7 9 11 12 8 5 5 7 6 7 13 14 14 18 23 23 26 32 36 33 33
7 7 8 7 7 6 6 6 7 7 8 8 8 7 7 6 7 7 7 8 7 7 6 5 5 6 6 7 7 9 9 10 11 7 2 4 2 4 8 12 13 12 10 9 9 9 9 10 7 3 6 7 8 8 7 5 5 6 5 3 5 5 6 9 8 10 9 11 9 7 11 10 9 11 8 2 6 8 9 10 15 25 29 33 36 34 32 33
7 6 7 7 6 6 6 6 7 8 9 9 10 9 7 6 6 7 7 7 8 8 6 5 6 6 6 7 7 8 9 9 5 3 3 5 5 3 3 8 10 10 9 8 9 10 10 10 6 4 6 9 11 10 7 7 6 4 6 4 6 6 6 12 15 16 16 16 13 5 6 9 11 14 9 1 4 1 7 15 17 25 35 37 34 33 33 32
7 6 6 6 6 6 5 6 6 8 9 9 10 10 9 7 5 6 7 7 8 7 6 6 6 6 6 7 6 7 6 4 1 4 1 2 4 5 1 5 6 7 7 8 9 11 12 11 7 6 5 8 9 6 6 12 11 3 5 8 10 10 6 13 20 20 18 17 16 5 2 5 9 14 13 6 1 3 8 15 23 33 40 40 35 33 34 33
7 7 7 6 6 5 5 5 6 7 8 9 10 10 9 8 6 6 7 7 8 7 6 6 5 5 5 6 7 7 4 0 2 2 1 2 4 5 1 4 6 7 7 9 11 12 13 11 7 6 4 5 6 6 8 14 12 5 6 10 16 16 9 15 21 18 14 12 11 4 3 4 5 10 9 6 2 4 12 20 29 35 39 39 36 35 36 33
8 7 7 7 6 5 5 5 6 7 8 9 10 10 10 8 7 6 7 7 8 6 6 6 5 5 4 6 6 6 7 5 5 4 2 3 5 5 2 5 7 8 10 11 13 13 13 10 7 7 4 4 5 7 11 12 10 6 6 8 17 20 16 22 25 18 15 12 11 8 6 4 1 3 4 7 8 17 23 29 35 36 37 36 34 35 36 32
8 8 8 8 7 6 6 6 6 6 7 8 9 10 10 9 8 6 7 7 8 6 5 6 5 4 3 5 6 7 10 7 5 5 3 4 7 6 4 7 8 10 12 13 14 14 11 10 9 7 3 6 6 6 10 8 5 6 7 11 15 19 20 26 25 18 17 15 13 12 7 6 6 1 6 10 20 29 31 34 37 37 34 33 34 33 33 31
9 9 9 9 8 7 7 6 6 6 7 7 8 9 9 9 8 8 7 7 7 6 6 5 5 4 3 4 6 6 7 5 5 5 4 8 9 6 6 8 10 12 12 14 16 15 11 9 10 7 4 7 7 7 8 3 3 6 10 14 12 16 23 25 22 16 15 14 12 10 5 7 9 1 6 11 26 33 33 36 36 37 34 32 33 31 31 30
9 9 9 9 9 8 7 7 6 6 6 6 7 8 9 9 8 9 9 8 7 6 6 5 5 4 4 5 4 2 4 5 5 5 7 10 9 6 7 9 11 12 14 17 17 14 10 7 5 5 7 10 6 8 8 5 6 9 13 14 13 18 22 20 17 15 12 11 11 8 5 9 8 2 3 11 28 35 34 35 34 35 34 33 33 31 30 29
9 9 9 9 9 8 8 7 7 6 6 6 7 7 8 9 8 8 9 9 7 7 7 6 5 5 5 7 5 3 5 5 4 5 8 10 5 5 7 10 11 12 16 19 16 12 9 5 6 7 7 6 4 8 8 5 8 14 14 12 12 13 12 11 8 9 8 6 9 6 5 8 3 3 11 19 28 36 36 34 34 34 34 35 34 32 30 28
9 9 9 9 8 8 8 8 7 7 7 6 6 7 7 8 8 8 8 9 8 7 7 6 5 6 7 10 11 5 5 4 5 5 6 8 1 5 6 9 11 14 18 18 13 9 8 8 10 11 11 6 4 6 8 13 16 16 11 6 8 6 5 9 6 7 5 3 7 4 5 6 3 4 21 28 26 34 37 33 33 34 35 35 34 32 30 28
10 9 9 9 8 8 8 9 8 8 8 7 7 7 7 8 9 9 8 8 8 7 8 7 7 8 7 10 10 3 3 6 7 6 3 4 4 7 6 9 10 14 15 11 7 6 8 11 13 17 18 9 3 4 11 18 14 12 7 1 4 7 5 8 6 9 6 5 9 1 3 7 5 5 26 31 29 33 32 30 32 34 35 35 34 32 30 29
11 10 9 9 8 8 8 8 9 9 8 8 7 8 8 9 9 10 9 9 8 8 8 7 7 8 8 9 7 4 5 6 7 9 4 0 7 8 6 7 6 8 7 8 9 10 10 14 17 15 13 8 5 7 11 11 6 5 4 3 3 2 5 5 5 7 6 8 8 5 3 9 7 8 28 31 34 37 28 26 30 32 35 34 34 32 30 29
13 11 10 9 9 8 7 7 8 9 9 9 9 9 9 10 10 11 11 9 8 8 7 6 6 7 10 11 8 6 8 9 10 10 6 4 8 9 7 6 2 3 6 10 10 10 10 14 15 7 5 6 6 6 5 5 4 3 2 4 4 1 6 6 4 6 6 7 6 9 4 7 8 8 30 32 34 37 28 25 28 31 34 34 33 32 30 29
15 12 10 10 9 8 8 7 7 8 9 10 10 11 11 11 12 13 12 11 9 8 7 5 5 6 7 8 7 7 10 12 10 8 7 8 9 9 8 5 2 3 5 8 9 10 11 12 9 3 3 4 2 3 4 5 4 4 1 3 4 3 5 6 6 8 11 6 4 9 5 3 7 6 30 33 31 34 28 25 27 32 34 33 34 32 32 32
17 14 11 10 10 9 8 7 6 7 8 9 11 12 12 13 13 14 14 12 9 8 7 6 6 7 8 8 7 7 12 13 10 10 8 7 10 8 6 7 5 4 6 7 8 10 11 8 3 2 3 1 2 4 4 4 3 4 2 1 4 4 3 5 8 7 10 8 6 9 7 5 6 5 27 30 28 31 27 25 28 31 32 33 34 34 35 36
19 16 12 10 10 9 8 7 6 6 6 8 9 10 11 13 14 15 15 12 9 6 6 7 4 4 7 9 7 6 9 10 10 12 9 6 9 7 8 11 8 5 6 7 7 7 7 5 1 0 3 3 2 5 2 3 3 3 2 2 3 3 4 6 8 8 7 9 8 8 7 7 5 7 24 31 32 30 26 28 29 30 31 32 34 35 36 37
19 18 14 11 10 9 8 6 5 5 5 5 6 8 10 12 11 10 8 9 8 3 4 6 7 2 5 8 8 8 5 7 9 11 11 8 9 8 7 11 12 9 5 2 4 5 5 2 2 1 2 3 2 5 6 8 7 6 5 4 3 3 5 7 10 9 6 9 8 10 8 6 3 2 13 20 25 26 24 26 27 28 31 32 34 36 37 37
17 18 16 12 9 9 8 6 4 3 3 4 6 8 8 7 5 3 4 10 12 10 12 13 14 15 17 17 15 11 6 9 12 13 11 9 10 10 10 11 13 10 4 3 3 4 4 2 2 4 6 7 7 8 9 7 7 7 2 2 3 2 5 7 8 7 5 9 5 7 6 3 2 3 5 9 12 16 20 20 22 27 30 32 34 35 37 37
16 16 16 14 10 8 7 5 4 3 4 5 6 9 8 5 2 3 8 13 16 16 18 20 21 23 26 23 17 13 11 10 16 15 9 10 12 9 10 10 6 5 4 5 3 1 3 4 6 9 10 10 9 8 7 5 5 3 1 1 3 1 5 8 5 6 4 6 1 1 7 6 3 5 4 13 11 10 18 20 21 27 29 31 34 35 35 34
15 15 15 15 11 8 6 6 5 5 6 6 7 8 8 5 4 7 10 12 18 21 19 20 22 25 28 24 17 15 16 11 15 16 11 12 14 9 7 6 4 3 3 2 2 2 1 4 11 13 10 6 6 5 5 5 2 1 1 1 4 3 4 7 5 7 6 5 1 1 5 5 6 5 5 15 15 15 24 29 30 31 28 28 32 34 34 31
15 14 14 14 12 10 6 6 6 7 8 7 7 7 7 8 6 8 9 10 17 23 19 18 21 24 27 24 17 14 15 11 13 18 17 15 16 13 8 5 4 4 2 2 4 2 2 6 12 12 7 5 5 5 3 1 2 1 1 1 3 2 1 4 7 7 5 3 2 1 1 2 4 3 2 12 18 20 25 28 32 35 34 33 35 36 36 34
15 14 13 13 13 11 7 6 7 8 10 8 6 9 11 12 7 6 9 7 10 16 15 14 16 20 25 22 14 13 16 16 14 16 20 18 16 14 9 5 3 3 4 4 6 5 6 10 9 5 6 8 5 4 3 4 3 3 3 3 3 2 3 4 6 6 6 4 2 5 5 5 3 4 1 4 11 16 19 19 22 27 28 30 34 37 38 37
16 14 13 12 12 12 9 7 7 8 11 6 7 12 12 9 5 5 7 4 4 9 9 7 11 17 24 19 14 15 14 16 19 17 20 22 19 12 6 6 4 3 7 5 5 4 9 15 11 3 5 8 7 5 4 4 0 4 4 6 6 4 5 6 5 4 6 5 3 5 4 6 4 3 3 2 3 9 13 14 18 22 20 21 28 34 37 37
17 16 14 12 12 11 10 6 5 8 10 3 8 10 8 7 6 6 5 3 3 5 3 4 8 13 17 14 15 15 7 12 23 21 20 22 22 15 6 5 5 5 7 4 2 3 6 12 9 5 6 7 7 5 5 6 5 2 5 6 6 5 4 5 3 1 2 2 4 3 4 4 6 5 5 1 5 8 9 9 13 21 22 22 26 31 35 37
18 17 15 13 12 11 10 7 5 9 9 5 8 8 6 7 8 8 4 3 3 3 2 5 7 7 10 11 14 12 1 6 16 21 23 22 23 21 9 4 4 4 4 2 1 3 4 4 4 5 5 6 5 4 5 6 7 3 6 5 5 3 3 3 4 3 2 3 4 4 5 2 4 5 5 2 3 4 7 9 10 17 23 25 26 30 36 38
18 18 17 14 12 11 11 9 6 6 7 8 8 6 6 8 7 6 2 3 3 1 2 4 5 4 7 10 17 18 9 4 4 13 27 25 22 19 9 6 6 4 3 3 2 6 2 1 5 5 4 4 3 6 6 6 5 7 7 4 4 3 5 5 6 3 1 2 4 5 3 2 4 6 5 3 1 3 5 9 10 15 23 26 27 30 33 35
17 18 18 15 12 12 11 9 5 2 3 4 4 5 7 6 4 2 3 1 4 1 1 5 5 5 8 8 14 20 15 6 2 7 20 25 24 16 8 11 7 3 3 4 4 6 4 7 10 7 5 4 6 7 6 7 4 7 4 3 2 2 3 4 6 3 3 4 3 6 1 1 4 5 5 4 3 5 4 3 8 18 25 25 24 25 26 30
18 17 18 17 14 12 12 9 4 1 2 2 2 3 5 3 1 4 1 3 3 2 1 4 4 5 8 4 5 13 11 5 3 2 8 19 24 15 6 10 7 2 1 1 2 5 7 9 7 6 5 6 6 5 5 7 6 3 1 1 3 6 4 3 4 4 4 2 5 6 1 3 1 5 4 2 2 2 3 3 4 14 22 23 22 23 25 28
18 17 17 19 16 14 14 8 5 2 3 3 3 1 3 2 3 4 3 3 2 3 1 1 3 4 8 5 3 7 7 4 4 5 4 8 13 9 2 3 2 2 3 4 3 5 6 4 3 4 6 6 4 1 2 2 2 2 3 3 3 4 5 5 5 4 3 2 6 6 1 6 2 5 4 5 5 2 7 6 6 10 17 21 23 24 26 27
18 16 17 19 18 17 15 9 6 4 5 5 4 1 3 2 2 2 3 3 3 3 1 1 3 2 5 6 5 6 5 4 3 7 5 3 5 6 4 4 3 2 2 3 2 5 5 3 4 3 4 5 5 1 4 5 4 4 3 5 5 2 3 3 3 2 1 4 4 5 1 3 2 6 5 7 7 2 3 5 12 16 19 22 24 25 26 25
19 17 17 19 20 20 16 10 8 7 6 5 3 1 4 4 2 5 4 2 2 2 3 4 3 2 3 4 4 5 5 4 4 6 6 4 4 5 4 5 6 5 1 4 2 2 3 5 5 2 2 3 6 3 2 3 2 3 2 3 4 2 2 1 3 1 1 3 4 4 0 1 3 4 5 7 5 4 7 8 14 21 24 25 25 26 25 22
19 18 18 19 20 20 16 12 12 8 4 3 3 4 4 2 4 4 3 4 4 4 4 4 6 5 2 3 4 6 5 4 5 6 5 4 3 3 3 4 5 6 3 3 2 2 1 4 3 2 2 3 6 5 6 4 2 3 4 5 4 4 4 3 3 2 3 3 5 4 2 2 2 3 4 4 6 13 19 18 18 21 22 25 26 25 25 22
19 18 19 19 20 20 16 13 13 9 7 5 4 4 3 4 4 2 3 4 2 3 5 6 7 6 4 3 3 4 5 5 5 4 4 5 4 5 4 4 6 4 4 3 3 2 3 3 6 4 4 5 5 4 6 6 2 3 2 5 2 5 5 2 3 5 4 1 2 2 1 3 4 3 2 8 10 14 21 22 22 21 20 23 24 23 23 21
20 18 18 20 20 17 15 14 13 12 11 7 4 1 4 4 3 2 2 2 1 3 7 8 5 4 4 4 4 3 2 3 4 3 1 2 3 4 4 4 6 7 6 4 3 1 2 4 7 5 2 2 3 5 6 6 2 2 2 1 4 5 7 4 2 1 4 3 2 1 2 4 2 1 3 8 9 9 14 18 20 20 21 23 22 21 21 19
20 18 18 20 18 14 14 14 14 16 13 7 4 4 4 3 4 4 3 3 4 5 5 5 3 2 3 2 3 4 6 6 3 5 2 1 2 3 3 4 3 8 11 6 2 3 3 2 6 4 4 5 9 4 2 4 5 3 1 3 1 3 4 4 2 2 4 2 3 2 2 2 2 1 4 6 5 5 6 11 15 18 22 23 21 22 21 19
20 19 18 14 12 13 14 13 16 19 13 5 2 4 3 3 5 5 5 6 6 5 3 2 3 2 3 2 2 1 4 6 2 4 3 2 3 2 1 2 3 2 7 6 2 2 4 1 6 4 2 6 10 6 3 4 2 4 3 3 3 3 1 1 2 1 1 2 3 3 0 1 1 2 4 5 1 3 5 4 7 11 17 22 23 24 22 20
19 17 11 9 5 11 15 13 19 20 10 3 2 3 2 4 7 9 12 10 5 3 3 3 3 2 1 3 2 3 4 3 4 2 2 2 3 3 3 2 2 3 3 6 4 1 3 3 3 6 3 3 6 5 3 6 6 3 2 2 2 3 3 2 2 3 3 2 2 2 2 1 3 4 3 4 5 6 6 3 2 4 11 20 24 23 21 18
14 9 5 12 7 11 17 15 18 16 6 2 4 3 3 4 7 12 16 11 4 4 4 4 2 1 1 2 3 3 5 6 6 2 1 1 1 2 5 6 5 4 4 8 4 1 3 3 3 6 5 3 2 1 3 2 5 5 4 3 1 2 2 1 1 1 4 4 2 1 1 3 4 3 3 3 4 7 9 6 3 4 8 14 20 21 18 16
10 4 3 13 7 14 19 15 12 7 2 3 3 2 4 5 6 12 19 16 9 8 8 5 3 3 3 2 2 3 4 5 6 2 2 1 2 1 4 7 8 7 3 7 4 2 2 2 3 2 3 2 3 3 2 2 2 1 1 2 1 3 3 3 1 3 2 4 3 4 2 5 5 3 3 2 4 6 11 12 7 8 11 14 17 18 16 14
10 3 4 16 5 19 21 10 2 2 3 3 3 4 6 7 7 10 16 16 10 9 9 6 3 3 3 2 1 1 2 2 4 3 2 2 4 4 1 8 10 8 3 3 2 1 2 3 3 0 1 2 5 4 2 3 2 4 3 3 2 2 3 5 3 3 0 1 1 4 3 4 5 4 4 4 5 9 15 17 13 13 15 16 17 15 12 11
11 7 7 14 7 21 17 4 3 1 2 4 5 8 9 8 7 8 9 10 8 4 2 1 1 1 1 0 2 3 3 1 1 1 2 0 1 5 3 5 7 5 4 2 2 2 2 4 3 2 3 4 4 1 4 6 6 5 4 4 4 2 1 4 5 3 2 1 1 3 2 3 5 5 1 3 5 9 12 15 16 16 16 18 18 14 12 11
13 10 9 11 7 12 7 2 2 3 4 4 3 6 10 9 8 9 7 7 7 2 2 1 2 1 1 1 3 3 3 1 2 3 2 2 2 8 8 2 7 5 2 1 2 1 1 1 3 3 3 6 6 5 5 6 5 2 2 3 4 4 4 3 1 3 3 1 3 5 2 3 4 4 3 8 9 10 12 14 18 18 18 19 18 15 12 11
11 7 10 12 6 5 3 2 4 3 2 3 2 4 6 6 9 10 5 3 7 6 3 4 7 5 2 3 3 3 5 4 2 4 2 1 2 6 8 8 11 6 3 3 4 3 2 2 3 4 2 0 1 2 2 3 3 2 2 4 4 5 6 4 2 4 2 1 2 5 4 4 3 4 5 8 9 9 11 16 19 19 19 19 16 15 12 10
7 3 8 11 11 11 5 5 8 6 2 2 2 3 2 2 6 5 3 5 9 11 9 10 11 7 5 5 3 4 7 6 4 3 3 3 3 2 4 11 14 10 8 8 6 4 4 2 3 6 6 4 4 4 3 1 3 3 5 7 5 4 5 5 4 3 3 1 2 2 5 3 2 5 3 5 9 9 8 13 17 17 18 17 14 14 12 11
5 2 5 6 7 11 11 13 15 9 4 3 1 3 4 2 3 6 8 7 9 10 8 11 13 8 5 5 5 6 7 6 6 5 3 4 3 4 8 11 11 10 10 8 4 4 5 2 1 5 5 5 5 2 2 2 2 3 5 7 5 4 5 7 5 1 4 4 2 4 3 5 3 7 5 2 4 7 7 13 19 20 20 18 14 13 13 13
6 2 6 6 3 2 5 11 12 8 8 7 4 4 8 8 6 7 5 5 12 12 6 7 12 11 9 6 5 4 6 6 7 6 4 5 4 4 7 6 8 9 7 4 2 4 5 1 2 3 3 2 3 2 4 5 4 3 5 6 5 4 6 7 3 0 4 6 2 1 7 6 4 7 7 6 2 5 6 9 14 15 15 14 11 10 11 12
8 3 8 12 6 3 5 11 11 7 11 9 5 7 9 10 9 9 7 4 8 12 8 5 8 11 12 10 6 4 5 4 4 5 5 5 4 3 4 4 8 13 10 4 3 3 4 1 1 4 4 3 4 5 6 7 6 5 7 6 4 5 7 7 4 3 7 7 4 5 10 7 4 6 7 8 9 15 17 15 12 11 9 8 8 8 9 11
10 6 9 12 8 7 11 14 9 6 10 9 6 7 8 9 9 8 11 9 4 5 7 7 6 8 10 10 9 6 3 3 2 2 3 5 5 3 3 1 3 9 9 3 3 4 3 1 1 4 4 4 4 6 7 7 7 7 8 9 6 6 7 6 4 4 6 6 4 7 9 6 6 8 9 13 17 20 21 20 19 18 15 12 9 5 4 7
12 10 9 7 5 9 12 12 8 5 6 8 7 6 6 8 7 5 9 14 11 5 4 4 5 6 8 10 10 6 4 4 2 5 6 4 4 3 2 1 1 3 5 3 2 3 3 1 2 5 4 3 2 5 6 5 8 8 8 10 9 6 6 5 5 5 3 5 4 7 7 3 7 8 11 17 20 20 18 17 18 20 19 17 14 10 6 2
16 14 11 4 4 10 9 6 7 7 4 7 9 8 7 7 8 6 5 11 15 12 10 9 6 5 6 8 8 7 10 11 11 12 11 10 10 10 8 7 3 0 0 1 2 1 3 3 1 3 3 3 4 4 5 6 7 5 4 6 5 3 7 7 8 9 6 4 5 4 3 2 6 6 9 12 14 16 17 18 17 18 20 19 17 15 12 6
Wind_Direction
348 350 348 346 347 347 348 346 348 342 336 327 315 312 312 316 315 310 307 302 300 298 293 294 295 296 293 293 295 295 292 284 281 278 278 292 255 226 212 193 191 193 200 217 223 209 190 189 181 170 182 217 248 261 258 262 251 236 167 167 233 228 223 214 181 253 308 314 318 315 322 20 4 35 31 36 93 96 77 77 98 113 130 150 156 160 162 156
342 348 347 349 352 354 359 358 358 354 350 343 332 322 312 315 317 315 313 307 303 298 294 296 296 293 294 297 300 301 298 293 289 283 285 306 258 231 214 199 194 191 194 210 216 214 196 177 164 170 201 229 224 240 248 255 224 195 150 188 232 214 241 265 227 281 298 291 304 315 328 6 7 356 5 8 91 100 79 73 98 107 118 139 149 155 155 152
332 343 346 351 353 356 360 0 4 359 357 354 348 337 321 316 319 321 317 310 303 295 296 296 295 294 297 300 303 307 306 304 296 288 358 34 335 247 225 218 211 201 195 201 202 205 202 177 163 208 244 241 229 235 239 240 228 200 188 227 248 222 254 276 268 270 275 280 295 326 336 356 354 341 354 48 110 103 115 119 110 111 124 137 144 149 147 146
319 330 341 348 354 356 357 1 5 3 3 359 357 352 338 324 318 320 317 312 301 293 296 294 294 295 299 304 304 308 315 317 292 175 81 28 28 30 217 221 218 202 194 200 200 201 208 198 200 262 270 250 237 238 233 221 234 203 183 209 242 233 253 267 266 268 272 280 278 286 337 345 341 333 338 103 121 67 171 159 146 139 139 139 140 143 143 145
309 316 326 338 349 351 348 353 357 1 4 1 1 356 350 342 322 315 315 312 301 296 298 292 292 297 302 304 304 310 325 351 140 152 135 332 3 8 100 201 203 187 195 207 207 205 209 211 226 264 264 248 236 238 237 224 229 239 232 237 243 242 251 261 262 266 271 278 278 286 16 329 328 327 337 347 248 219 192 165 154 150 145 143 142 144 146 150
300 304 309 320 334 339 335 339 347 355 358 360 2 356 355 349 333 318 310 309 303 302 303 292 293 299 302 301 304 310 302 242 318 306 240 263 313 337 335 198 185 180 208 211 209 207 208 215 231 251 238 234 223 210 235 233 225 243 267 256 255 250 244 258 261 265 270 275 280 301 332 320 350 332 346 7 325 160 157 152 146 144 143 144 145 148 151 155
292 294 297 303 311 321 324 327 335 345 350 355 360 357 353 346 340 322 309 311 308 309 303 291 294 299 303 303 306 302 279 280 322 317 259 268 290 305 263 208 182 185 205 204 203 197 204 215 222 239 232 239 231 214 242 245 220 219 257 261 260 254 247 255 257 257 263 270 273 271 287 305 359 323 36 68 98 124 137 141 140 141 142 143 144 148 153 157
292 289 289 292 296 303 309 315 323 334 343 348 356 358 352 348 345 330 316 313 311 308 296 292 298 299 300 301 308 305 285 284 324 319 297 312 299 284 243 204 184 192 198 194 192 185 199 217 226 244 220 225 235 233 255 266 238 214 241 255 256 256 252 255 256 253 264 277 275 260 252 264 267 235 97 100 116 126 134 136 139 141 140 142 145 149 153 158
299 292 286 285 288 292 297 300 310 323 333 340 352 355 355 353 349 344 333 321 315 303 294 298 300 298 285 287 307 312 286 282 321 320 322 324 307 276 227 205 191 193 189 183 185 187 202 212 223 237 243 255 254 256 263 271 258 224 235 250 254 258 254 255 258 257 272 283 275 255 243 275 278 59 98 120 125 131 135 136 141 141 140 144 149 154 158 160
309 301 292 286 284 286 289 290 296 308 321 332 346 352 356 353 346 348 341 334 325 303 298 300 300 298 281 289 299 297 289 303 321 314 328 326 302 251 219 208 196 189 181 180 183 189 199 200 224 267 287 281 265 269 263 215 251 266 266 264 258 258 253 250 256 268 289 296 278 251 249 273 264 125 121 140 134 136 136 135 141 142 144 150 154 160 163 164
318 309 301 294 286 281 282 285 287 294 307 322 335 344 349 345 341 342 340 340 332 314 307 301 304 294 287 296 262 233 303 315 313 299 330 339 301 223 207 196 190 182 175 179 184 197 210 229 277 295 295 281 283 296 283 260 296 298 291 282 268 265 257 248 249 278 300 302 279 257 266 279 273 140 162 154 142 141 138 137 144 146 149 155 158 162 165 166
328 317 309 306 296 285 279 279 282 285 294 308 322 332 337 335 333 332 333 337 335 325 314 311 310 294 299 293 263 260 307 292 290 289 336 348 298 174 185 185 182 175 174 182 192 213 245 277 284 274 263 268 312 324 314 312 314 301 294 281 285 321 300 269 264 279 285 280 283 316 333 298 297 171 157 151 144 141 139 141 146 148 152 157 161 163 164 165
340 329 321 317 309 298 282 275 276 279 284 293 308 318 321 325 328 328 325 327 332 330 320 318 312 304 307 284 256 244 285 275 285 270 330 6 134 136 160 171 171 171 178 203 234 271 287 289 285 269 257 261 315 311 306 310 310 298 301 274 305 353 315 264 251 271 267 260 266 266 333 274 275 162 150 148 146 141 138 143 146 147 152 157 162 164 164 165
349 341 332 326 320 311 294 280 273 271 277 283 295 305 308 313 318 323 322 319 322 328 328 323 315 311 300 272 243 221 233 245 262 239 244 332 144 134 150 158 170 183 203 260 287 299 301 294 290 278 253 249 293 307 310 315 315 303 323 351 354 355 288 256 212 250 261 264 241 162 239 258 268 155 152 154 150 145 142 147 147 147 152 157 162 165 166 168
356 348 340 333 328 320 307 292 277 269 271 275 285 293 296 302 308 317 319 316 312 316 323 322 322 315 298 276 246 225 214 220 239 226 240 255 173 154 152 150 204 236 262 285 296 298 299 293 286 279 254 261 298 327 332 331 328 335 343 324 340 212 274 292 244 211 218 262 188 161 243 256 273 182 164 161 152 149 147 151 151 150 155 158 163 168 168 168
2 354 347 339 334 328 316 304 290 276 268 267 273 279 286 295 304 310 310 310 307 306 306 300 312 316 303 281 249 223 211 221 231 217 247 248 189 161 144 150 227 253 256 264 272 276 282 286 277 268 285 278 315 49 21 356 339 345 54 268 289 262 294 314 286 225 207 239 167 181 230 249 292 194 165 163 154 149 147 154 156 153 158 159 164 168 167 166
7 0 352 345 340 333 324 314 301 285 269 262 264 271 283 294 301 303 301 302 299 295 290 272 290 304 274 258 264 247 223 222 220 218 241 228 195 189 189 207 216 204 226 237 251 267 277 281 252 240 283 299 89 86 46 349 307 316 6 277 262 238 267 292 291 267 202 201 200 204 216 230 301 129 152 159 156 150 149 158 158 157 159 159 162 166 166 166
8 4 356 349 343 338 329 319 306 291 275 265 267 276 290 298 301 297 289 285 284 291 287 249 245 312 266 241 267 280 232 216 213 213 216 203 205 223 236 237 228 202 229 248 254 255 261 272 150 116 334 6 56 99 121 241 212 249 278 291 287 260 256 250 269 275 193 184 199 202 210 233 307 103 147 162 164 156 153 159 159 158 158 159 164 166 168 170
4 5 1 350 344 341 332 323 314 299 289 286 294 301 304 307 310 304 286 268 257 264 285 233 204 241 275 252 275 303 255 196 191 198 198 199 210 228 245 246 242 226 215 244 259 238 221 270 29 67 289 282 225 153 190 219 206 227 230 197 225 268 266 249 265 267 172 155 192 195 198 217 277 112 151 168 168 155 149 155 155 156 159 162 168 170 173 175
357 2 2 355 345 340 333 324 319 312 310 313 319 316 314 323 330 334 303 273 265 273 280 265 250 257 271 274 282 302 278 200 196 201 199 200 208 224 235 237 239 229 193 159 228 245 185 189 255 223 223 227 226 206 207 229 233 236 213 167 210 237 282 289 299 300 126 132 198 194 153 137 237 245 161 148 149 143 143 150 154 157 163 168 171 174 177 179
350 354 359 358 347 337 331 317 305 300 309 314 319 314 306 311 329 328 313 291 285 286 278 274 270 266 271 275 274 290 290 235 212 208 198 202 207 217 223 216 214 226 227 191 197 280 148 188 240 229 221 218 226 225 210 221 233 233 92 2 311 267 287 293 300 331 50 107 307 57 111 124 202 258 181 139 140 163 157 155 162 165 169 174 174 175 179 182
344 345 351 354 350 338 321 302 293 290 305 310 307 309 309 319 339 330 318 297 293 294 282 277 273 265 268 270 263 274 283 254 214 206 194 198 202 199 200 183 171 225 257 170 168 341 103 226 244 235 223 217 249 249 203 200 177 62 27 349 308 283 297 303 307 345 26 91 356 319 138 182 227 256 202 159 160 182 174 167 170 170 172 177 176 176 178 180
337 340 341 345 348 339 314 294 287 285 294 288 287 315 338 336 335 330 311 290 295 295 281 266 259 258 262 260 253 257 259 238 212 204 193 195 201 200 196 178 190 224 247 153 176 200 218 240 244 237 209 176 249 248 162 84 43 46 286 265 281 267 101 302 310 337 4 81 130 162 110 266 273 316 205 175 168 175 181 178 173 174 177 180 179 178 177 179
330 334 333 336 342 338 323 293 276 280 286 279 309 352 353 327 315 331 309 285 291 295 284 258 249 252 248 243 244 247 241 228 221 207 193 193 198 199 206 197 180 227 239 201 177 192 238 253 259 254 204 177 204 239 134 74 358 289 238 210 231 205 171 244 295 331 348 3 75 80 25 325 336 34 352 195 166 171 184 183 177 181 184 183 181 178 176 179
323 326 328 328 332 333 329 300 269 279 283 282 350 7 14 347 324 343 321 304 282 288 294 253 227 235 234 234 244 245 238 223 221 212 194 196 198 192 206 202 179 236 241 213 181 207 250 257 260 259 206 181 178 220 199 141 40 311 252 217 217 186 198 251 303 10 30 349 320 76 45 298 326 7 292 316 137 177 189 185 183 187 191 188 184 180 177 178
317 318 321 322 322 325 326 309 268 276 275 290 354 351 17 13 347 337 328 1 311 272 281 200 193 218 223 230 240 233 233 221 220 216 200 202 207 197 187 193 194 227 225 206 194 213 253 251 231 174 165 162 158 197 214 150 118 303 247 209 198 166 175 232 258 51 82 271 282 75 122 257 320 322 283 297 145 178 199 204 192 186 192 195 189 183 179 179
311 311 314 315 315 315 317 307 273 273 271 287 322 318 348 5 344 325 333 31 318 246 174 173 180 204 211 216 217 203 191 231 215 213 206 205 208 200 198 214 206 225 206 108 5 249 267 268 191 156 145 137 146 195 213 146 120 231 243 195 190 161 135 173 136 133 219 243 313 13 104 161 299 287 275 274 154 174 192 203 205 194 194 195 191 186 181 181
306 305 305 306 308 305 308 304 285 286 287 289 297 298 336 355 331 314 43 60 289 221 115 183 188 204 205 204 199 195 218 236 167 209 213 210 204 192 198 222 192 206 198 116 285 263 267 231 191 170 121 127 181 216 202 143 137 243 242 203 227 202 161 146 103 106 303 1 321 323 64 116 270 279 301 334 8 288 223 185 189 199 198 196 192 187 183 182
304 301 298 297 299 293 293 296 292 339 317 291 299 308 328 337 323 3 90 101 281 306 122 186 183 204 207 197 195 204 225 227 133 220 211 203 199 187 202 226 201 188 210 158 206 249 261 238 210 157 124 184 217 224 186 146 187 247 236 211 290 25 130 108 90 94 39 49 261 278 339 119 267 288 315 356 15 287 263 163 181 192 193 195 191 183 179 180
305 300 294 290 289 285 283 276 253 274 281 244 256 320 340 333 57 61 98 250 269 278 177 176 183 201 197 185 199 212 225 216 173 205 194 186 190 191 207 222 204 155 271 19 194 244 285 267 223 155 166 197 195 215 194 171 204 252 327 299 5 13 15 45 73 85 59 15 258 262 212 121 271 288 277 277 298 239 161 100 180 178 175 182 182 176 176 179
308 302 291 283 281 279 276 253 202 242 292 266 262 350 36 41 77 93 208 263 288 266 22 152 230 196 178 174 199 215 228 237 161 135 169 178 181 198 228 222 215 58 1 346 314 295 326 307 231 194 200 175 126 247 262 205 179 64 54 87 57 355 2 17 3 44 83 250 263 268 246 106 140 273 263 264 290 229 159 147 145 148 154 162 165 167 173 179
309 301 288 278 272 267 261 233 194 253 292 293 299 7 68 46 41 179 233 327 327 244 340 310 254 221 191 190 194 202 208 233 176 148 184 173 156 198 214 201 187 63 336 285 302 327 334 270 261 269 213 164 110 11 320 345 42 76 65 77 83 356 10 13 317 354 178 236 250 258 297 90 212 249 255 288 308 281 180 151 142 143 144 148 154 163 172 178
308 300 286 272 265 259 251 236 230 251 276 277 281 61 85 86 219 226 239 294 255 239 335 327 288 262 216 205 216 208 190 215 207 173 187 168 150 207 239 221 170 128 201 217 199 326 324 304 302 340 295 172 132 124 256 307 44 126 169 110 115 118 78 275 271 300 254 264 275 271 77 52 287 270 261 295 317 115 101 86 121 134 138 142 149 159 166 173
308 301 288 270 259 254 245 239 238 237 238 217 156 93 95 129 237 236 231 249 267 302 326 310 292 292 238 207 228 207 185 213 203 173 170 150 145 216 260 257 184 139 137 172 187 174 148 317 284 203 262 191 151 161 178 169 128 182 172 132 138 148 144 200 216 195 224 264 295 314 38 144 218 271 289 344 40 97 97 86 94 106 120 132 136 143 149 154
308 300 289 274 259 249 240 234 228 215 198 176 113 85 139 202 241 237 231 243 275 306 305 296 285 287 285 278 274 214 193 217 205 170 165 161 176 203 208 227 201 149 115 160 229 174 143 254 254 244 241 179 161 189 163 114 60 265 123 98 157 179 154 164 178 178 174 158 307 314 246 211 199 247 5 73 80 95 101 98 94 94 102 112 117 124 132 139
308 299 289 278 261 245 234 228 218 204 192 160 100 128 199 211 223 209 228 239 267 324 324 320 293 234 238 282 332 351 311 255 205 179 202 168 195 221 210 218 199 169 150 156 216 182 117 254 275 316 334 169 199 215 169 123 146 275 50 111 227 173 131 123 192 200 97 101 286 262 236 296 339 321 11 76 96 105 113 114 110 111 111 106 108 115 121 130
311 304 293 277 262 241 223 219 206 194 184 145 113 209 215 220 223 223 259 296 319 334 337 324 305 204 184 237 321 5 356 327 209 180 260 311 279 274 259 275 248 182 175 157 168 190 134 256 288 357 39 325 322 311 164 132 133 120 135 206 203 64 85 107 124 358 51 110 268 271 199 319 30 221 328 20 68 83 101 122 123 124 122 118 121 125 126 131
320 314 302 289 268 232 209 203 193 183 168 127 154 225 226 232 228 239 278 302 318 329 326 275 263 238 165 174 277 73 31 335 282 194 216 208 229 275 317 302 350 111 166 140 107 201 120 94 294 332 46 321 341 19 22 341 67 126 175 177 96 79 4 57 116 152 111 172 269 302 55 81 152 232 320 346 7 71 48 88 123 131 133 132 134 134 136 137
324 314 314 354 339 208 187 180 179 171 152 115 205 226 245 254 259 266 276 286 292 287 276 244 233 258 170 167 189 139 140 242 274 254 205 192 227 274 342 342 4 37 97 106 116 193 98 113 269 305 335 342 355 40 39 328 338 23 41 23 56 135 161 159 147 152 141 163 233 309 13 328 235 241 267 252 203 135 93 48 31 106 133 136 136 137 141 142
332 312 323 16 14 181 168 162 166 159 143 177 193 219 261 269 276 278 279 279 263 248 254 231 205 295 271 197 187 163 167 214 250 245 141 82 194 270 334 3 357 336 54 72 86 120 54 93 203 291 331 33 9 9 58 356 332 351 354 341 7 100 113 126 110 97 119 135 174 131 28 284 250 248 260 215 157 128 119 111 78 96 122 132 133 134 137 138
353 312 329 17 31 167 158 152 160 150 142 210 194 222 263 272 280 285 285 283 270 254 248 228 196 195 210 227 222 193 172 209 240 225 142 109 126 202 328 20 6 326 28 54 30 66 78 116 159 290 349 57 230 252 15 345 261 230 304 299 147 128 115 110 358 317 98 126 165 146 147 269 259 256 260 181 131 121 122 123 122 123 125 130 133 132 128 126
2 295 350 20 49 175 163 141 155 153 156 205 224 229 250 264 271 280 285 289 280 251 238 232 218 193 203 227 224 171 111 176 224 217 179 182 156 172 13 37 21 351 32 76 328 275 122 103 96 123 228 230 247 236 62 26 71 106 51 9 53 90 104 123 172 259 17 85 175 117 107 264 269 283 262 204 151 125 124 130 132 127 127 129 129 126 116 112
344 303 345 28 111 172 160 107 334 277 216 240 232 238 249 253 267 278 284 292 285 250 220 259 310 98 173 309 70 60 35 94 174 110 152 103 122 197 232 30 38 21 36 64 296 318 55 83 65 321 293 304 302 321 54 36 48 63 16 7 42 33 81 140 169 175 119 4 167 100 89 252 285 310 295 135 106 95 103 122 128 122 122 126 127 123 115 113
338 321 356 37 120 168 143 73 249 230 260 267 248 254 255 249 258 265 273 301 301 270 149 79 354 355 208 15 80 80 35 40 53 45 114 136 153 208 219 71 70 64 30 198 196 27 30 101 84 52 359 343 345 354 4 8 26 49 318 353 39 29 32 58 42 69 80 219 152 121 152 223 282 315 76 90 78 71 74 99 115 115 115 123 128 127 125 125
353 340 0 25 77 129 117 201 243 265 272 283 293 268 258 258 259 252 246 347 7 21 54 30 15 14 10 22 67 71 48 66 58 11 13 64 130 193 188 131 104 87 67 129 145 113 104 128 103 106 130 252 309 289 299 329 344 337 332 357 22 32 43 59 37 54 83 249 97 115 174 220 292 348 74 91 88 82 79 96 110 116 120 125 129 131 135 140
14 4 346 5 44 55 34 335 348 352 315 304 293 271 278 268 273 296 8 44 39 43 47 28 22 31 20 15 59 45 33 57 66 31 26 14 19 46 100 111 112 110 104 96 93 95 89 79 106 125 150 177 191 217 247 334 7 338 336 349 360 20 50 83 84 85 145 105 32 187 175 155 6 9 56 118 120 117 113 115 121 127 132 135 137 140 148 155
37 50 358 347 8 17 4 355 1 356 319 345 20 313 340 334 308 2 33 47 38 45 58 34 27 39 8 360 72 36 4 38 46 21 9 4 1 27 49 78 92 103 116 104 83 98 85 52 124 121 138 181 182 211 310 22 44 350 346 350 352 10 47 75 77 165 158 103 342 289 87 86 358 342 335 269 154 140 147 144 144 148 148 149 152 156 162 168
41 35 15 12 341 338 0 341 333 340 355 7 40 24 12 19 16 12 22 52 38 32 47 42 33 38 19 9 82 46 359 38 40 1 348 1 360 12 20 32 36 41 69 74 33 97 104 128 194 119 107 133 116 54 25 51 62 39 25 360 350 32 75 87 75 273 128 119 211 248 79 73 336 335 335 316 346 97 104 132 147 151 151 155 162 169 171 172
34 30 1 10 8 284 325 327 318 0 21 6 21 38 25 27 32 25 10 27 35 23 36 70 44 41 36 29 66 70 21 44 31 344 348 356 348 13 22 3 4 13 26 36 14 52 93 160 205 108 87 39 40 47 46 51 49 41 31 10 17 78 89 87 73 62 87 103 156 124 91 70 358 327 324 348 48 79 79 81 92 94 106 135 152 168 179 183
31 27 347 354 5 352 1 360 353 33 27 5 22 41 31 31 35 34 32 39 45 14 33 68 55 46 49 42 55 70 51 79 123 283 331 350 347 19 43 13 339 357 7 25 4 17 66 189 235 91 70 343 359 50 52 60 73 60 26 4 17 62 63 53 36 34 68 82 83 84 81 53 356 339 356 30 57 70 68 64 64 65 73 87 91 103 168 201
42 35 357 342 0 6 16 18 14 41 31 5 8 20 33 39 29 32 44 43 50 55 45 69 64 46 42 39 42 36 350 350 303 276 281 294 303 305 324 330 27 4 353 357 6 23 69 88 344 71 76 299 323 56 51 63 74 58 23 357 359 36 64 58 25 18 75 122 86 60 65 24 322 341 32 51 56 57 51 47 52 58 63 68 69 66 62 195
42 40 27 39 42 11 12 23 25 42 36 352 355 12 33 42 35 48 58 31 38 61 71 76 87 62 37 32 17 342 325 323 315 309 308 300 292 289 287 294 310 30 298 13 27 34 101 101 52 86 97 285 306 55 66 60 51 25 338 330 334 68 86 68 32 17 29 104 106 84 103 255 301 347 47 56 55 56 51 45 49 56 60 64 68 64 59 58
Height
1504 1503 1502 1501 1500 1500 1499 1498 1497 1496 1495 1494 1493 1493 1492 1491 1490 1489 1489 1487 1487 1486 1486 1485 1485 1484 1484 1483 1483 1483 1482 1482 1481 1481 1479 1478 1478 1478 1480 1481 1482 1483 1484 1485 1486 1487 1487 1488 1489 1491 1492 1492 1493 1492 1492 1493 1493 1495 1496 1501 1502 1499 1496 1490 1488 1489 1488 1487 1483 1480 1478 1477 1476 1474 1472 1473 1474 1474 1476 1477 1477 1478 1479 1481 1483 1484 1487 1491
1504 1503 1502 1501 1500 1499 1499 1498 1497 1496 1495 1494 1493 1492 1491 1491 1490 1489 1488 1487 1486 1486 1485 1485 1485 1484 1483 1483 1483 1483 1482 1481 1480 1479 1478 1477 1477 1477 1478 1480 1481 1482 1483 1484 1485 1486 1487 1488 1489 1491 1491 1492 1492 1491 1492 1491 1491 1493 1495 1498 1497 1494 1489 1485 1487 1487 1486 1486 1483 1480 1478 1477 1476 1475 1474 1475 1477 1475 1477 1481 1480 1479 1482 1484 1486 1488 1490 1493
1504 1503 1502 1501 1500 1499 1499 1498 1497 1496 1495 1494 1493 1492 1491 1490 1490 1489 1488 1487 1486 1485 1485 1485 1484 1484 1483 1483 1483 1482 1482 1481 1479 1478 1477 1477 1477 1477 1478 1479 1480 1481 1482 1484 1485 1485 1486 1487 1489 1490 1491 1491 1490 1490 1491 1491 1490 1490 1493 1496 1492 1488 1486 1484 1485 1484 1485 1485 1482 1480 1478 1477 1476 1475 1475 1476 1478 1477 1477 1480 1481 1482 1484 1485 1489 1492 1494 1497
1504 1503 1502 1501 1500 1499 1498 1498 1497 1496 1495 1494 1493 1492 1491 1490 1489 1488 1487 1487 1486 1485 1485 1485 1484 1484 1483 1483 1483 1482 1481 1480 1478 1477 1477 1477 1477 1477 1478 1479 1480 1480 1481 1483 1484 1484 1486 1487 1488 1489 1491 1490 1489 1490 1490 1489 1490 1488 1489 1491 1487 1485 1485 1483 1483 1482 1483 1483 1481 1480 1478 1477 1475 1475 1475 1475 1479 1480 1477 1476 1477 1480 1482 1485 1491 1495 1497 1500
1503 1502 1501 1501 1500 1499 1498 1497 1497 1496 1495 1494 1493 1492 1490 1489 1489 1488 1487 1486 1486 1485 1485 1484 1484 1484 1483 1483 1483 1482 1482 1481 1477 1476 1477 1477 1477 1477 1477 1478 1479 1479 1480 1482 1483 1484 1485 1486 1488 1489 1490 1489 1488 1489 1488 1487 1488 1488 1486 1486 1484 1484 1483 1481 1481 1481 1481 1481 1480 1479 1478 1478 1475 1474 1475 1474 1477 1478 1476 1475 1476 1477 1480 1484 1489 1494 1497 1499
1502 1501 1501 1500 1499 1499 1498 1497 1496 1495 1495 1494 1493 1492 1490 1489 1488 1488 1487 1486 1485 1485 1484 1484 1484 1483 1483 1483 1482 1482 1482 1480 1477 1476 1477 1476 1477 1476 1477 1477 1477 1478 1479 1481 1482 1483 1484 1486 1487 1488 1488 1487 1487 1487 1486 1485 1487 1488 1486 1483 1482 1482 1481 1480 1479 1479 1480 1480 1479 1478 1478 1477 1477 1476 1475 1474 1475 1475 1475 1476 1477 1480 1482 1483 1487 1491 1494 1497
1501 1500 1500 1499 1499 1498 1497 1496 1496 1495 1494 1493 1492 1491 1490 1489 1488 1487 1486 1486 1485 1484 1484 1483 1483 1483 1483 1482 1482 1481 1480 1478 1476 1476 1476 1476 1476 1476 1476 1476 1476 1477 1478 1480 1481 1482 1483 1485 1486 1486 1487 1486 1485 1485 1483 1484 1485 1487 1485 1482 1480 1480 1479 1477 1477 1478 1479 1479 1477 1477 1477 1476 1477 1478 1477 1476 1475 1475 1476 1477 1478 1481 1483 1484 1487 1492 1494 1496
1500 1499 1499 1498 1498 1497 1496 1496 1495 1494 1494 1493 1492 1491 1490 1488 1488 1487 1486 1485 1484 1484 1483 1483 1483 1482 1482 1481 1481 1480 1479 1476 1475 1475 1475 1475 1475 1475 1475 1475 1475 1476 1477 1479 1480 1481 1482 1483 1484 1484 1485 1484 1484 1483 1482 1484 1484 1485 1484 1480 1478 1477 1476 1475 1475 1476 1476 1476 1476 1476 1475 1475 1476 1477 1478 1479 1477 1477 1478 1480 1480 1482 1483 1485 1488 1492 1496 1497
1499 1498 1498 1497 1497 1496 1496 1495 1494 1494 1493 1492 1491 1490 1489 1488 1487 1486 1485 1484 1484 1483 1483 1482 1482 1482 1482 1481 1481 1479 1476 1475 1475 1475 1474 1474 1474 1473 1474 1474 1474 1475 1477 1478 1479 1481 1481 1482 1482 1483 1484 1483 1482 1482 1481 1484 1484 1481 1480 1478 1477 1475 1474 1473 1472 1473 1474 1473 1473 1474 1473 1474 1474 1476 1480 1481 1478 1478 1480 1482 1482 1482 1483 1486 1489 1493 1496 1497
1498 1497 1496 1496 1495 1495 1495 1494 1494 1493 1492 1492 1491 1490 1489 1488 1487 1485 1484 1484 1483 1483 1482 1482 1481 1481 1481 1480 1480 1479 1474 1473 1474 1474 1473 1473 1472 1472 1472 1473 1474 1474 1476 1477 1479 1480 1480 1481 1481 1483 1484 1482 1481 1481 1481 1483 1481 1478 1477 1476 1475 1474 1472 1471 1471 1471 1472 1471 1471 1472 1472 1472 1471 1475 1483 1484 1479 1478 1480 1483 1483 1483 1484 1487 1490 1492 1495 1496
1496 1496 1495 1495 1494 1494 1494 1493 1493 1492 1492 1491 1490 1489 1488 1487 1486 1485 1484 1483 1483 1482 1481 1481 1481 1480 1480 1479 1479 1477 1473 1473 1473 1473 1473 1472 1472 1471 1472 1472 1473 1474 1476 1477 1478 1479 1480 1480 1482 1483 1484 1482 1481 1480 1479 1479 1478 1477 1476 1475 1473 1471 1469 1469 1469 1469 1470 1470 1469 1469 1469 1470 1470 1473 1479 1482 1481 1478 1478 1482 1484 1484 1485 1488 1490 1492 1494 1496
1496 1495 1494 1494 1493 1493 1493 1492 1492 1491 1491 1490 1489 1488 1488 1487 1485 1485 1484 1483 1482 1481 1481 1481 1480 1479 1479 1478 1476 1474 1472 1473 1473 1473 1473 1472 1472 1471 1472 1472 1473 1474 1475 1477 1478 1479 1480 1480 1482 1483 1482 1481 1480 1480 1478 1476 1477 1475 1474 1474 1472 1469 1468 1467 1466 1467 1468 1469 1468 1469 1472 1472 1471 1473 1475 1479 1483 1479 1478 1481 1482 1483 1485 1487 1489 1491 1494 1495
1495 1494 1493 1493 1492 1492 1491 1491 1490 1490 1490 1489 1488 1488 1487 1486 1485 1484 1483 1482 1482 1481 1480 1480 1479 1479 1478 1476 1473 1472 1472 1472 1472 1472 1473 1472 1472 1472 1472 1473 1474 1475 1476 1477 1478 1479 1480 1480 1481 1482 1480 1480 1480 1479 1477 1474 1475 1473 1472 1473 1472 1473 1470 1465 1465 1466 1466 1468 1467 1470 1480 1477 1470 1473 1475 1477 1480 1478 1479 1481 1482 1483 1485 1487 1488 1490 1492 1494
1494 1493 1493 1492 1491 1491 1490 1490 1489 1489 1489 1488 1487 1487 1486 1485 1484 1483 1483 1482 1481 1481 1480 1480 1479 1478 1477 1473 1471 1472 1472 1471 1471 1471 1472 1473 1473 1473 1473 1474 1475 1476 1477 1477 1477 1478 1478 1478 1480 1479 1478 1479 1478 1478 1477 1475 1475 1474 1473 1473 1476 1479 1472 1463 1464 1466 1466 1467 1465 1472 1482 1476 1468 1473 1476 1475 1476 1476 1479 1482 1482 1483 1484 1486 1487 1489 1491 1493
1494 1493 1492 1491 1490 1490 1489 1489 1488 1488 1488 1487 1486 1486 1485 1484 1484 1483 1482 1481 1481 1481 1480 1479 1478 1477 1476 1472 1469 1471 1470 1470 1470 1470 1471 1472 1473 1472 1473 1474 1475 1476 1476 1476 1476 1476 1477 1477 1479 1477 1477 1477 1477 1479 1479 1478 1476 1474 1479 1481 1480 1481 1474 1464 1463 1465 1466 1465 1465 1472 1479 1473 1466 1470 1473 1474 1474 1474 1478 1482 1481 1481 1483 1485 1487 1489 1490 1492
1494 1492 1491 1491 1490 1489 1488 1487 1487 1487 1486 1486 1486 1485 1484 1484 1483 1482 1481 1480 1480 1480 1479 1479 1477 1477 1475 1470 1468 1469 1469 1469 1469 1469 1471 1472 1472 1472 1472 1474 1474 1475 1475 1476 1476 1476 1476 1477 1477 1476 1476 1476 1478 1480 1482 1484 1482 1478 1482 1485 1483 1482 1479 1471 1463 1460 1463 1465 1466 1469 1473 1471 1465 1465 1469 1473 1474 1473 1476 1480 1480 1480 1481 1483 1486 1488 1490 1491
1494 1492 1491 1490 1489 1488 1487 1487 1486 1485 1485 1485 1484 1484 1483 1483 1482 1481 1480 1480 1480 1479 1479 1478 1477 1477 1473 1468 1467 1467 1467 1468 1469 1470 1471 1471 1472 1472 1473 1473 1473 1475 1475 1475 1476 1475 1476 1476 1476 1476 1476 1477 1478 1481 1487 1492 1490 1484 1483 1485 1483 1482 1481 1476 1465 1457 1459 1464 1466 1467 1468 1469 1465 1464 1468 1473 1474 1472 1474 1477 1478 1479 1481 1483 1486 1488 1489 1490
1494 1492 1491 1490 1489 1488 1487 1486 1485 1485 1484 1483 1483 1483 1483 1482 1481 1480 1479 1479 1478 1479 1478 1477 1477 1477 1470 1466 1467 1466 1466 1468 1468 1470 1470 1471 1472 1472 1473 1473 1473 1474 1475 1475 1475 1475 1476 1475 1475 1477 1477 1478 1479 1482 1491 1493 1488 1485 1485 1484 1483 1481 1479 1477 1469 1457 1456 1462 1465 1466 1468 1468 1466 1466 1467 1471 1472 1471 1472 1475 1477 1479 1480 1483 1485 1487 1489 1490
1494 1492 1491 1489 1488 1487 1486 1485 1485 1484 1483 1483 1483 1483 1482 1481 1479 1478 1477 1477 1477 1477 1476 1474 1475 1474 1467 1465 1466 1466 1467 1468 1468 1469 1469 1470 1471 1472 1472 1473 1473 1474 1475 1476 1475 1474 1475 1476 1477 1480 1480 1479 1479 1481 1484 1483 1481 1482 1483 1483 1482 1481 1477 1473 1465 1454 1453 1461 1464 1464 1467 1467 1467 1469 1469 1470 1471 1470 1472 1475 1477 1479 1480 1482 1484 1485 1487 1489
1494 1492 1491 1489 1488 1487 1486 1485 1484 1483 1483 1483 1482 1482 1481 1480 1479 1477 1476 1476 1474 1473 1472 1471 1470 1469 1465 1464 1465 1466 1467 1467 1467 1467 1468 1469 1470 1471 1471 1472 1473 1473 1474 1475 1476 1474 1474 1478 1480 1479 1478 1476 1477 1478 1478 1478 1478 1479 1480 1480 1480 1480 1476 1467 1461 1453 1451 1459 1463 1462 1465 1467 1467 1468 1470 1472 1474 1473 1474 1477 1477 1477 1479 1480 1482 1483 1485 1487
1493 1492 1490 1489 1487 1486 1485 1485 1484 1483 1483 1482 1482 1481 1480 1479 1479 1478 1476 1472 1470 1470 1469 1468 1468 1466 1463 1463 1463 1465 1467 1467 1466 1466 1467 1468 1469 1470 1471 1471 1472 1474 1473 1473 1475 1474 1475 1480 1479 1474 1473 1473 1473 1475 1476 1478 1477 1475 1476 1477 1477 1479 1474 1465 1462 1457 1452 1457 1464 1464 1465 1467 1465 1466 1469 1470 1475 1477 1473 1474 1476 1476 1478 1479 1480 1481 1484 1487
1493 1491 1490 1489 1487 1486 1485 1484 1484 1483 1482 1482 1481 1480 1479 1479 1479 1478 1476 1471 1466 1466 1466 1465 1465 1463 1460 1461 1462 1464 1467 1466 1465 1465 1466 1467 1469 1469 1469 1469 1471 1472 1472 1473 1475 1477 1479 1479 1473 1469 1470 1473 1473 1474 1476 1475 1473 1473 1475 1476 1477 1477 1472 1464 1460 1457 1455 1458 1465 1467 1465 1468 1467 1466 1468 1466 1468 1473 1471 1469 1470 1472 1476 1479 1479 1480 1482 1486
1492 1490 1489 1488 1486 1485 1484 1484 1483 1482 1481 1480 1480 1480 1479 1478 1478 1477 1476 1472 1464 1460 1461 1461 1461 1460 1458 1459 1460 1463 1465 1464 1463 1463 1464 1466 1466 1467 1468 1468 1470 1471 1471 1473 1476 1480 1482 1475 1466 1466 1470 1473 1475 1475 1475 1473 1471 1472 1474 1476 1477 1476 1474 1470 1463 1458 1458 1459 1465 1466 1463 1465 1467 1466 1466 1465 1464 1467 1470 1469 1468 1470 1472 1473 1475 1477 1478 1481
1491 1490 1489 1487 1486 1485 1483 1483 1482 1481 1481 1480 1480 1479 1478 1477 1477 1476 1475 1473 1466 1457 1455 1456 1457 1457 1456 1456 1459 1461 1462 1462 1461 1461 1462 1464 1465 1466 1467 1467 1470 1472 1471 1472 1474 1479 1477 1467 1463 1465 1469 1472 1474 1474 1473 1472 1473 1473 1472 1474 1475 1473 1473 1472 1467 1463 1461 1461 1462 1464 1467 1465 1465 1466 1466 1466 1466 1467 1470 1472 1472 1472 1472 1473 1474 1475 1476 1477
1490 1489 1487 1486 1485 1483 1483 1482 1481 1481 1480 1479 1480 1478 1477 1476 1476 1476 1473 1473 1469 1458 1452 1453 1454 1454 1453 1455 1458 1458 1458 1459 1458 1459 1460 1461 1463 1465 1466 1467 1470 1471 1470 1470 1474 1477 1472 1464 1464 1466 1468 1470 1471 1471 1471 1470 1474 1475 1471 1469 1470 1470 1472 1471 1469 1468 1470 1472 1464 1465 1479 1477 1465 1465 1466 1466 1470 1471 1471 1471 1471 1472 1475 1477 1476 1475 1475 1477
1488 1487 1486 1485 1484 1483 1482 1481 1480 1480 1479 1479 1479 1477 1477 1476 1476 1476 1473 1478 1475 1459 1452 1453 1452 1452 1451 1454 1456 1457 1460 1457 1454 1457 1458 1459 1461 1462 1465 1467 1467 1467 1467 1468 1472 1472 1467 1461 1462 1465 1466 1467 1468 1469 1468 1468 1475 1478 1470 1465 1466 1469 1471 1471 1470 1472 1476 1479 1469 1466 1481 1485 1471 1464 1464 1467 1470 1471 1472 1471 1470 1471 1474 1476 1476 1476 1474 1476
1487 1486 1485 1484 1483 1482 1481 1480 1480 1479 1478 1479 1477 1477 1477 1475 1476 1474 1475 1486 1478 1456 1451 1453 1452 1451 1450 1451 1452 1457 1461 1455 1451 1455 1455 1456 1459 1460 1464 1465 1465 1465 1464 1467 1474 1470 1462 1461 1463 1464 1464 1466 1467 1467 1466 1466 1473 1475 1465 1462 1466 1467 1470 1471 1469 1473 1475 1474 1472 1469 1474 1484 1481 1469 1465 1468 1469 1468 1470 1470 1471 1471 1472 1474 1476 1475 1473 1474
1485 1484 1483 1483 1482 1481 1480 1479 1479 1478 1478 1477 1476 1477 1476 1474 1476 1473 1480 1491 1473 1450 1450 1452 1450 1450 1449 1450 1451 1452 1453 1450 1451 1454 1451 1454 1457 1458 1462 1462 1463 1464 1461 1467 1475 1468 1461 1462 1462 1462 1463 1466 1466 1464 1462 1463 1468 1467 1460 1462 1464 1464 1467 1468 1467 1472 1474 1475 1479 1477 1474 1485 1487 1473 1466 1469 1466 1465 1465 1465 1468 1471 1472 1473 1475 1475 1474 1475
1484 1482 1481 1481 1480 1480 1479 1478 1478 1477 1477 1475 1475 1476 1475 1475 1474 1474 1485 1487 1463 1448 1450 1449 1449 1450 1448 1449 1450 1449 1449 1448 1452 1452 1449 1453 1455 1457 1460 1459 1460 1463 1461 1464 1469 1465 1461 1460 1458 1458 1462 1463 1461 1459 1459 1461 1464 1461 1459 1462 1461 1462 1464 1465 1468 1471 1474 1481 1485 1481 1477 1486 1489 1475 1467 1468 1465 1464 1464 1463 1464 1467 1471 1473 1474 1477 1477 1477
1482 1481 1480 1478 1478 1478 1477 1477 1476 1476 1475 1474 1475 1475 1474 1475 1475 1482 1492 1481 1459 1451 1449 1448 1449 1448 1447 1449 1450 1449 1448 1448 1450 1450 1450 1452 1454 1455 1457 1457 1458 1460 1461 1462 1463 1461 1458 1456 1455 1456 1457 1457 1456 1457 1457 1459 1460 1458 1460 1462 1462 1465 1462 1464 1470 1471 1480 1490 1486 1482 1479 1483 1491 1480 1468 1468 1466 1464 1465 1465 1464 1465 1470 1473 1474 1477 1478 1479
1480 1479 1478 1476 1476 1476 1475 1475 1475 1475 1474 1474 1474 1474 1474 1476 1479 1489 1488 1468 1457 1454 1448 1449 1449 1446 1447 1449 1450 1449 1448 1448 1448 1450 1452 1452 1454 1457 1457 1459 1459 1461 1464 1464 1462 1461 1457 1456 1456 1453 1452 1453 1455 1457 1457 1457 1458 1459 1462 1464 1467 1472 1470 1472 1477 1477 1489 1497 1487 1482 1480 1481 1491 1483 1468 1468 1466 1464 1465 1463 1464 1466 1469 1472 1474 1476 1478 1479
1478 1477 1475 1474 1474 1473 1473 1474 1474 1474 1474 1474 1474 1473 1475 1481 1486 1488 1476 1461 1460 1456 1448 1450 1448 1446 1447 1447 1448 1448 1447 1448 1448 1449 1452 1453 1455 1457 1457 1459 1459 1465 1471 1468 1465 1463 1458 1456 1455 1452 1451 1452 1455 1459 1459 1457 1458 1461 1465 1467 1475 1485 1487 1489 1490 1489 1495 1494 1485 1483 1480 1482 1488 1478 1468 1468 1464 1464 1465 1461 1461 1464 1467 1471 1473 1475 1477 1479
1475 1473 1472 1471 1470 1470 1471 1472 1473 1474 1473 1473 1474 1473 1478 1487 1486 1478 1470 1464 1460 1453 1448 1450 1447 1446 1448 1449 1449 1447 1447 1449 1447 1448 1450 1451 1455 1456 1455 1455 1454 1461 1469 1469 1469 1467 1463 1458 1454 1454 1452 1450 1453 1459 1463 1462 1460 1462 1465 1469 1478 1490 1499 1502 1501 1501 1498 1490 1485 1484 1481 1485 1487 1475 1469 1468 1465 1465 1465 1464 1463 1464 1467 1471 1472 1475 1477 1479
1472 1470 1469 1467 1467 1467 1468 1470 1471 1472 1473 1473 1473 1475 1482 1487 1480 1470 1468 1464 1456 1451 1450 1450 1447 1446 1447 1449 1448 1444 1447 1449 1445 1447 1449 1451 1457 1457 1455 1454 1453 1455 1461 1466 1469 1468 1471 1468 1458 1455 1454 1451 1451 1455 1458 1459 1459 1461 1463 1466 1473 1480 1491 1498 1497 1498 1497 1491 1487 1483 1482 1488 1486 1476 1470 1468 1467 1467 1466 1467 1469 1469 1471 1473 1474 1476 1478 1480
1468 1467 1465 1463 1463 1464 1466 1468 1469 1470 1472 1471 1473 1478 1482 1482 1475 1469 1467 1461 1455 1454 1452 1449 1448 1449 1448 1447 1445 1442 1445 1447 1444 1446 1449 1451 1456 1456 1453 1452 1451 1453 1459 1467 1469 1466 1471 1469 1456 1452 1452 1449 1450 1451 1451 1455 1461 1462 1462 1466 1470 1469 1474 1485 1490 1490 1490 1492 1490 1485 1484 1484 1478 1473 1470 1469 1471 1472 1470 1471 1473 1475 1477 1476 1477 1478 1479 1481
1465 1463 1461 1460 1459 1461 1463 1465 1466 1468 1470 1470 1475 1479 1477 1473 1468 1465 1461 1456 1456 1455 1454 1453 1450 1451 1453 1450 1448 1446 1446 1446 1444 1447 1450 1449 1452 1452 1450 1448 1447 1449 1454 1462 1466 1465 1469 1467 1455 1451 1451 1449 1451 1450 1449 1455 1461 1463 1465 1467 1466 1462 1464 1477 1489 1490 1489 1494 1494 1488 1485 1482 1477 1476 1474 1473 1476 1476 1474 1473 1475 1478 1479 1480 1481 1481 1482 1483
1462 1460 1458 1456 1456 1458 1461 1462 1464 1466 1468 1470 1475 1475 1471 1466 1461 1459 1456 1454 1456 1455 1457 1461 1454 1451 1455 1454 1452 1452 1451 1449 1446 1448 1452 1451 1452 1452 1449 1447 1444 1444 1447 1452 1459 1462 1465 1465 1458 1453 1454 1452 1450 1450 1448 1450 1454 1460 1465 1463 1461 1463 1466 1472 1485 1493 1496 1500 1495 1487 1487 1487 1487 1486 1479 1476 1478 1480 1479 1476 1477 1480 1481 1482 1484 1485 1486 1486
1459 1457 1455 1453 1453 1455 1457 1460 1462 1464 1467 1470 1474 1472 1467 1463 1458 1456 1455 1454 1456 1456 1459 1463 1456 1450 1452 1454 1452 1451 1455 1458 1451 1448 1452 1453 1454 1453 1449 1448 1445 1443 1444 1446 1453 1457 1459 1465 1463 1456 1455 1454 1449 1451 1454 1452 1450 1454 1458 1456 1459 1469 1473 1474 1483 1492 1499 1502 1496 1490 1492 1493 1491 1488 1481 1479 1480 1481 1483 1482 1481 1482 1482 1482 1484 1485 1487 1488
1458 1456 1453 1451 1451 1452 1455 1458 1460 1463 1466 1471 1474 1470 1465 1461 1456 1455 1456 1455 1456 1457 1458 1458 1453 1450 1450 1450 1450 1450 1455 1461 1454 1449 1453 1454 1455 1454 1450 1449 1447 1446 1445 1445 1450 1454 1457 1465 1468 1459 1454 1455 1454 1457 1464 1464 1456 1452 1454 1456 1458 1466 1472 1474 1480 1485 1491 1499 1499 1495 1497 1494 1488 1485 1482 1481 1480 1479 1482 1486 1485 1484 1482 1481 1482 1483 1484 1485
1458 1456 1454 1452 1451 1451 1454 1457 1459 1463 1466 1468 1470 1467 1462 1459 1456 1453 1455 1455 1454 1455 1454 1452 1450 1450 1449 1448 1449 1448 1451 1456 1452 1450 1453 1454 1455 1456 1452 1449 1449 1448 1446 1446 1450 1454 1457 1464 1468 1462 1457 1459 1463 1465 1468 1469 1464 1461 1462 1462 1462 1465 1470 1473 1478 1480 1483 1493 1499 1499 1502 1496 1486 1483 1482 1480 1479 1477 1479 1484 1485 1484 1483 1482 1482 1482 1483 1484
1458 1457 1455 1453 1452 1451 1454 1457 1460 1462 1465 1465 1465 1463 1461 1459 1455 1452 1452 1453 1453 1451 1450 1448 1447 1448 1448 1447 1447 1446 1447 1450 1449 1449 1451 1453 1455 1457 1454 1451 1451 1450 1447 1450 1453 1454 1458 1463 1466 1466 1463 1465 1468 1465 1463 1463 1464 1465 1466 1466 1465 1465 1469 1476 1484 1484 1480 1485 1492 1494 1499 1497 1486 1483 1481 1478 1478 1477 1478 1481 1484 1485 1484 1484 1484 1484 1484 1484
1459 1457 1455 1453 1452 1452 1453 1457 1460 1461 1462 1463 1461 1460 1459 1458 1455 1452 1451 1451 1450 1448 1445 1444 1444 1444 1445 1445 1444 1443 1446 1447 1447 1447 1448 1450 1452 1453 1453 1452 1452 1451 1450 1455 1457 1455 1457 1461 1464 1467 1467 1466 1466 1464 1462 1461 1461 1462 1465 1467 1468 1467 1468 1475 1483 1484 1482 1485 1487 1486 1494 1495 1486 1483 1480 1476 1476 1477 1477 1479 1481 1484 1485 1485 1485 1485 1485 1486
1459 1457 1454 1453 1453 1453 1454 1459 1463 1463 1461 1459 1458 1457 1457 1456 1454 1452 1451 1450 1448 1445 1443 1443 1443 1443 1444 1443 1442 1443 1446 1446 1446 1448 1448 1449 1450 1450 1450 1451 1453 1454 1455 1457 1458 1455 1456 1462 1466 1468 1467 1463 1460 1460 1461 1461 1461 1465 1469 1469 1470 1471 1470 1472 1476 1477 1479 1486 1487 1488 1497 1496 1486 1482 1481 1478 1477 1477 1478 1479 1480 1483 1484 1485 1485 1486 1487 1487
1459 1457 1455 1454 1455 1454 1457 1463 1467 1463 1459 1457 1456 1456 1455 1454 1453 1452 1451 1450 1447 1443 1443 1444 1444 1443 1443 1443 1442 1443 1447 1448 1449 1449 1449 1450 1451 1449 1449 1451 1452 1455 1457 1457 1457 1456 1459 1466 1469 1472 1475 1472 1468 1466 1466 1467 1468 1471 1474 1473 1472 1473 1471 1472 1475 1474 1478 1486 1486 1488 1498 1496 1487 1484 1482 1480 1479 1480 1481 1481 1482 1484 1485 1485 1486 1486 1487 1489
1460 1459 1458 1457 1458 1458 1461 1465 1465 1461 1458 1458 1457 1456 1455 1453 1450 1449 1449 1449 1447 1445 1445 1445 1444 1443 1443 1444 1444 1445 1447 1449 1451 1452 1451 1450 1450 1449 1449 1451 1452 1455 1457 1457 1456 1456 1462 1468 1469 1473 1481 1484 1482 1480 1478 1477 1475 1474 1474 1474 1475 1475 1472 1474 1478 1479 1482 1488 1486 1487 1494 1493 1487 1485 1483 1481 1481 1483 1484 1484 1484 1485 1486 1487 1488 1488 1489 1490
1463 1463 1462 1461 1459 1460 1463 1464 1462 1460 1459 1459 1458 1455 1454 1453 1450 1448 1447 1448 1449 1448 1448 1449 1444 1444 1447 1446 1446 1450 1451 1451 1453 1455 1456 1455 1453 1452 1452 1451 1453 1456 1458 1458 1457 1458 1464 1469 1469 1471 1476 1480 1481 1481 1478 1477 1478 1477 1477 1475 1476 1478 1475 1475 1480 1483 1485 1487 1485 1486 1488 1488 1488 1488 1485 1483 1481 1482 1484 1484 1485 1486 1486 1487 1488 1489 1490 1491
1467 1470 1471 1468 1465 1464 1464 1463 1461 1461 1460 1459 1459 1457 1455 1455 1451 1448 1448 1449 1450 1449 1450 1453 1450 1451 1455 1451 1450 1457 1460 1458 1458 1459 1460 1459 1456 1455 1455 1455 1455 1457 1458 1458 1458 1459 1465 1470 1471 1473 1475 1476 1478 1478 1476 1476 1479 1480 1479 1478 1479 1479 1477 1477 1481 1484 1484 1486 1489 1488 1488 1490 1493 1493 1490 1486 1483 1481 1482 1482 1483 1485 1485 1487 1489 1490 1491 1491
1470 1473 1474 1474 1473 1471 1469 1466 1465 1464 1461 1459 1460 1459 1459 1458 1455 1454 1452 1450 1451 1450 1452 1458 1459 1459 1461 1457 1456 1464 1466 1463 1465 1466 1465 1463 1460 1458 1458 1457 1458 1458 1458 1458 1459 1460 1465 1470 1471 1473 1476 1477 1477 1476 1476 1478 1480 1481 1482 1482 1480 1479 1478 1481 1484 1484 1483 1486 1492 1493 1493 1496 1498 1496 1492 1489 1485 1484 1484 1484 1484 1485 1486 1487 1488 1490 1491 1492
1474 1475 1475 1474 1474 1474 1472 1470 1467 1465 1464 1462 1462 1462 1463 1463 1461 1460 1457 1454 1456 1457 1456 1463 1466 1464 1464 1461 1460 1468 1472 1470 1473 1473 1470 1468 1466 1463 1463 1463 1462 1460 1459 1460 1461 1462 1466 1471 1471 1472 1476 1478 1476 1476 1478 1478 1480 1483 1486 1487 1485 1483 1483 1485 1488 1488 1486 1490 1496 1496 1496 1500 1501 1498 1494 1491 1489 1487 1487 1488 1488 1488 1489 1489 1489 1490 1491 1492
1478 1479 1478 1475 1475 1474 1472 1471 1469 1468 1468 1466 1465 1466 1467 1466 1465 1463 1461 1461 1464 1464 1462 1466 1469 1467 1467 1466 1466 1472 1476 1475 1477 1477 1473 1472 1471 1468 1468 1469 1467 1464 1462 1463 1464 1463 1466 1472 1472 1472 1477 1480 1477 1477 1479 1480 1482 1485 1488 1490 1487 1487 1489 1490 1492 1491 1490 1495 1499 1495 1495 1500 1502 1500 1497 1494 1491 1490 1490 1491 1491 1491 1491 1490 1490 1490 1491 1492
1482 1482 1481 1478 1478 1477 1476 1475 1472 1472 1474 1473 1471 1470 1469 1469 1468 1466 1466 1466 1467 1468 1467 1469 1471 1469 1469 1469 1470 1473 1474 1474 1475 1474 1472 1473 1472 1470 1470 1470 1468 1468 1467 1466 1466 1465 1467 1472 1474 1474 1480 1483 1480 1479 1480 1480 1481 1485 1490 1492 1491 1491 1495 1498 1500 1498 1495 1496 1497 1493 1497 1505 1505 1501 1499 1497 1495 1494 1495 1495 1495 1494 1493 1492 1492 1492 1492 1492
1482 1482 1482 1481 1481 1480 1479 1478 1475 1476 1481 1481 1477 1473 1471 1471 1469 1467 1469 1470 1469 1470 1470 1469 1470 1471 1472 1472 1472 1473 1472 1471 1471 1470 1470 1470 1470 1469 1469 1469 1468 1469 1469 1468 1468 1468 1469 1471 1475 1477 1481 1485 1484 1481 1479 1480 1484 1490 1495 1497 1497 1497 1498 1501 1504 1504 1501 1499 1498 1498 1504 1509 1507 1503 1501 1501 1500 1500 1500 1499 1498 1497 1496 1495 1495 1494 1493 1492